Regional Weather Roundup
Issued by NWS Boston, MA

Home | Current Version | Previous Version | Text Only | Print | Product List | Glossary On
Versions: 1 2 3 4 5 6 7 8 9 10 11 12 13 14 15 16 17 18 19 20 21 22 23 24 25 26 27 28 29 30 31 32 33 34 35 36 37 38 39 40 41 42 43 44 45 46 47 48
000
ASUS41 KBOX 100510
RWRBOX

REGIONAL WEATHER ROUNDUP
NATIONAL WEATHER SERVICE TAUNTON MA
1200 AM EST WED FEB 10 2016

NOTE:  "FAIR" INDICATES FEW OR NO CLOUDS BELOW 12,000 FEET WITH NO
SIGNIFICANT WEATHER AND/OR OBSTRUCTIONS TO VISIBILITY.  THE FOLLOWING
OBSERVATION LOCATIONS DO NOT REPORT PRESENT WEATHER...PROVINCETOWN...
SMITHFIELD...BLOCK ISLAND...KEENE...AND OXFORD.

MAZALL-100600-
EASTERN MASSACHUSETTS

CITY           SKY/WX    TMP DP  RH WIND       PRES   REMARKS
BOSTON         CLEAR     25  17  72 CALM      29.61F
BEVERLY        CLEAR     17  12  80 CALM      29.60F
LAWRENCE       CLEAR     17  14  88 CALM      29.62F
BEDFORD        CLEAR     11   7  84 CALM      29.61S
BLUE HILL        N/A     23  16  74 SW6       29.57S WCI  16
NORWOOD        FOG       15  11  83 CALM      29.62S VSB 1/2
MARSHFIELD     CLEAR     23  21  93 CALM      29.63S
PLYMOUTH       PTCLDY    20  19  96 CALM      29.61S
TAUNTON        PTCLDY    18  14  84 CALM      29.60F
NEW BEDFORD    CLEAR     20  19  96 CALM      29.60F
$$

MAZALL-100600-
CAPE COD AND THE ISLANDS

CITY           SKY/WX    TMP DP  RH WIND       PRES   REMARKS
FALMOUTH       CLOUDY    25  21  86 CALM      29.61S
HYANNIS        CLOUDY    29  23  78 CALM      29.60R
CHATHAM        CLOUDY    29  25  85 CALM      29.62R
PROVINCETOWN   CLOUDY    30  23  75 W8        29.61S WCI  22
NANTUCKET      PTCLDY    31  26  82 NE3       29.60F
MARTHAS VNYRD  PTCLDY    25  21  85 N6        29.61R WCI  18
$$

MAZALL-100600-
CENTRAL AND WESTERN MASSACHUSETTS

CITY           SKY/WX    TMP DP  RH WIND       PRES   REMARKS
WORCESTER      MOCLDY    20  16  84 SW3       29.54F
FITCHBURG      MOCLDY    17  11  77 CALM      29.59F
ORANGE         CLOUDY    17  14  88 CALM      29.57F
SPRINGFIELD    CLOUDY    18  15  89 NE2       29.58F
WESTFIELD      CLOUDY    21  17  84 CALM      29.58F
NORTH ADAMS    CLOUDY    27  21  78 E5        29.55F WCI  22
PITTSFIELD     CLOUDY    24  21  88 CALM      29.51F
$$

RIZALL-100600-
RHODE ISLAND

CITY           SKY/WX    TMP DP  RH WIND       PRES   REMARKS
PROVIDENCE     PTCLDY    22  18  85 W3        29.61F
NEWPORT        MOCLDY    23  20  88 CALM      29.60F
BLOCK ISLAND   MOCLDY    27  21  80 CALM      29.59F
SMITHFIELD     CLEAR     18  18 100 CALM      29.57F
WESTERLY       CLEAR     21  19  92 N3        29.60F
$$

CTZALL-100600-
CONNECTICUT

CITY           SKY/WX    TMP DP  RH WIND       PRES   REMARKS
BRADLEY INTL   FLURRIES  25  20  81 CALM      29.58F
HARTFORD       CLOUDY    26  21  81 E3        29.60F
BRIDGEPORT     PTCLDY    29  25  85 CALM      29.60F
DANBURY        PTCLDY    25  21  85 CALM      29.59F
GROTON         PTCLDY    24  23  96 CALM      29.61S
NEW HAVEN      CLEAR     25  19  78 CALM      29.60F
CHESTER        FAIR      27  25  93 CALM      29.58F
MERIDEN        PTCLDY    25  21  85 CALM      29.60F
WILLIMANTIC    PTCLDY    19  15  84 CALM      29.60F
OXFORD         PTCLDY    25  14  63 CALM      29.57F
$$

MEZ002-015-021-024-NHZ003-005-008-011-012-014-VTZ005-008-100600-
NORTHERN NEW ENGLAND

CITY           SKY/WX    TMP DP  RH WIND       PRES   REMARKS
PORTLAND ME    CLOUDY    16  13  88 CALM      29.61S
BANGOR ME      LGT SNOW  19  16  88 W3        29.59R FOG
CONCORD NH     CLOUDY    17  13  84 E3        29.59F
MANCHESTER NH  CLOUDY    20  16  84 CALM      29.59F
NASHUA NH      CLOUDY    14  10  85 CALM      29.60F
PORTSMOUTH NH  MOCLDY    15  11  85 NW2       29.59F
JAFFREY NH     CLOUDY    16  12  84 CALM      29.54F
KEENE NH       CLOUDY    21  16  79 CALM      29.58S
BURLINGTON VT  CLOUDY    25  21  85 S5        29.54F WCI  19
MT. WASHINGTON SNOWSHWR   7   7 100 W38         N/A  VSB 0   WCI -19
$$

NYZ052-076-100600-
EASTERN NEW YORK

CITY           SKY/WX    TMP DP  RH WIND       PRES   REMARKS
ALBANY         MOCLDY    27  23  85 S3        29.56F
NEW YORK CITY  CLOUDY    33  26  75 CALM      29.60F
$$

ANZALL-100600-
MARINE OBSERVATIONS

STATION/POSITION TIME  TEMP    WIND        PRES    VSBY  WAVE
                       AIR SEA DIR/SP/G                  HT/PER
                 (UTC) (F)     (DEG/KT/KT) (MB)    (MI)  (FT/S)
BOSTON BUOY      0450   30 41  270/  6/ 10 1002.4F         6/13
BUZZARDS BAY     0400          350/  9/  9 1003.3R
NANTUCKET SOUND  0450   33 41  350/  8/ 10 1002.1R         2/13
MASS BAY-STELLWA 0404   29 42  300/  6/ 10   N/A    1 1/8  6/13
ISLE OF SHOALS   0400   28     310/  5/  6 1001.9F
S OF BLOCK IS    NOT AVBL
$$

......................KEY.........................
  SKY/WX - SKY CONDITION/PRESENT WEATHER
  TMP    - TEMPERATURE IN FAHRENHEIT
  DWPT   - DEWPOINT IN FAHRENHEIT
  RH     - RELATIVE HUMIDITY IN PERCENT
  WIND   - DIRECTION AND SPEED IN MPH
  PRES   - MEAN SEA LEVEL PRESSURE IN INCHES OF HG
  WCI    - WIND CHILL INDEX
  VSB    - VISIBILITY IN MILES
  HX     - HEAT INDEX
  TC     - TEMPERATURE IN CELSIUS
  VRB    - VARIABLE WIND DIRECTION
  N/A    - NOT AVAILABLE



USA.gov is the U.S. government's official web portal to all federal, state and local government web resources and services.